Location: Brahman Valley
(40.6513°N, 111.8855°W)
Time: 12:13:55
(UTC+00:00)

Vanguard 1 Rocket - Visible Passes

Search period start: 13 May 2021 00:00
Search period end: 23 May 2021 00:00
Orbit: 652 x 4224 km, 34.3° (Epoch: 12 May)

Date Brightness Start Highest point End Pass type
(mag) Time Alt. Az. Time Alt. Az. Time Alt. Az.
13 May 11.5 11:06:12 10° S 11:26:19 30° SE 11:42:41 10° E visible
14 May 11.6 09:57:04 10° S 10:12:42 20° SE 10:27:01 10° E visible
15 May 11.7 08:56:20 10° SE 08:59:31 10° SE 09:02:41 10° ESE visible
15 May 11.3 11:06:29 10° SSW 11:28:21 36° SE 11:46:16 10° E visible
16 May 11.5 09:56:12 10° S 10:14:35 26° SE 10:31:35 10° E visible
17 May 11.5 08:49:19 10° SSE 09:01:19 16° SE 09:13:20 10° E visible
17 May 11.2 11:07:18 10° SSW 11:30:22 43° SE 11:49:32 10° E visible
18 May 11.3 09:57:49 13° S 10:16:23 32° SE 10:35:23 10° E visible
19 May 11.3 08:50:23 13° SSE 09:03:00 21° SE 09:18:55 10° E visible
19 May 11.0 11:08:32 10° SW 11:32:21 49° SSE 11:52:35 10° E visible
20 May 11.5 07:46:16 10° SE 07:50:16 11° ESE 07:54:22 10° ESE visible
20 May 11.1 10:00:09 16° SSW 10:18:09 38° SE 10:38:44 10° E visible
21 May 11.1 08:52:36 18° SSE 09:04:35 27° SE 09:23:09 10° E visible
21 May 10.9 11:10:06 10° SW 11:34:21 56° SSE 11:55:29 10° E visible
22 May 11.3 07:45:00 14° SE 07:51:48 16° SE 08:03:55 10° E visible
22 May 11.0 10:02:15 19° SSW 10:19:54 45° SE 10:41:48 10° E visible
